1508090400.32,29122,15.75,74988.0,3.67,-22.73,-23.19,0,*78
1508090401.55,29123,15.75,74982.5,3.67,-22.63,-23.09,0,*79
1508090402.83,29124,15.75,74982.3,3.67,-22.73,-23.33,0,*76
1508090404.06,29125,15.75,74982.5,3.67,-22.93,-23.43,0,*7E
1508090405.29,29126,15.75,74980.0,3.67,-22.93,-23.39,0,*70
1508090406.52,29127,15.75,74980.5,3.67,-22.87,-23.43,0,*79
1508090407.78,29128,15.75,74986.3,3.67,-23.03,-23.43,0,*7B
1508090408.99,29129,15.75,74980.5,3.65,-22.93,-23.39,0,*7D
1508090410.21,29130,15.75,74982.5,3.67,-22.87,-23.43,0,*7F
1508090411.47,29131,15.75,74984.8,3.67,-23.03,-23.39,0,*7E
1508090412.69,29132,15.75,74980.8,3.65,-23.03,-23.39,0,*7F
1508090413.9,29133,15.75,74984.3,3.65,-22.87,-23.43,0,*7E
1508090415.12,29134,15.75,74982.3,3.67,-22.87,-23.39,0,*76
1508090416.37,29135,15.81,74986.3,3.67,-23.03,-23.59,0,*7C
1508090417.58,29136,15.75,74984.8,3.65,-22.87,-23.43,0,*7B
1508090418.8,29137,15.75,74984.5,3.67,-22.87,-23.39,0,*75
1508090420.0,29138,15.75,74980.5,3.65,-22.87,-23.39,0,*78
1508090421.2,29139,15.75,74980.8,3.65,-22.87,-23.39,0,*79
1508090422.43,29140,15.75,74982.8,3.67,-22.87,-23.43,0,*78
1508090423.62,29141,15.75,74984.0,3.65,-22.87,-23.39,0,*76
1508090424.88,29142,15.75,74986.0,3.65,-22.77,-23.33,0,*70
1508090426.14,29143,15.75,74982.5,3.67,-22.57,-23.19,0,*79
1508090427.4,29144,15.81,74986.5,3.65,-22.77,-23.33,0,*76
1508090428.6,29145,15.75,74982.8,3.65,-22.63,-23.09,0,*7B
1508090429.83,29146,15.75,74984.3,3.65,-22.63,-23.19,0,*79
1508090431.11,29147,15.75,74982.8,3.67,-22.73,-23.33,0,*73
1508090432.31,29148,15.75,74986.8,3.65,-22.41,-22.93,0,*74
1508090433.54,29149,15.75,74984.3,3.65,-22.41,-23.19,0,*76
1508090434.8,29150,15.75,74982.0,3.67,-22.77,-23.39,0,*7B
1508090436.08,29151,15.75,74984.5,3.67,-22.77,-23.23,0,*71
1508090437.31,29152,15.75,74986.0,3.65,-22.63,-23.33,0,*74
1508090438.53,29153,15.75,74986.0,3.67,-22.87,-23.39,0,*77
1508090439.79,29154,15.75,74988.3,3.65,-22.77,-23.53,0,*71
1508090441.07,29155,15.75,74986.8,3.67,-22.73,-23.23,0,*71
1508090442.3,29156,15.75,74984.0,3.65,-22.77,-23.39,0,*7F
1508090443.55,29157,15.75,74986.8,3.71,-22.41,-23.03,0,*77
1508090444.78,29158,15.75,74986.5,3.65,-22.37,-23.03,0,*7C
1508090446.03,29159,15.75,74986.5,3.67,-22.77,-23.39,0,*72
1508090447.29,29160,15.75,74984.0,3.67,-22.77,-23.39,0,*78
1508090448.49,29161,15.75,74986.5,3.65,-22.87,-23.39,0,*74
1508090449.71,29162,15.75,74986.5,3.67,-22.63,-23.09,0,*7C
1508090450.98,29163,15.75,74986.8,3.67,-22.57,-23.19,0,*7B
1508090452.25,29164,15.81,74988.0,3.67,-22.73,-23.33,0,*72
1508090453.53,29165,15.75,74988.5,3.67,-22.21,-20.53,0,*71
1508090454.81,29166,15.75,74986.3,3.67,-22.73,-20.83,0,*78
1508090456.02,29167,15.75,74982.0,3.65,-22.63,-20.89,0,*70
1508090457.24,29168,15.81,74984.3,3.65,-22.57,-20.89,0,*78
1508090458.52,29169,15.75,74986.3,3.67,-22.77,-20.99,0,*78
1508090459.73,29170,15.75,74984.0,3.65,-22.63,-20.89,0,*76
1508090461.01,29171,15.75,74986.8,3.67,-22.73,-20.99,0,*75
1508090462.22,29172,15.75,74980.5,3.65,-22.41,-20.73,0,*71
1508090463.42,29173,15.75,74982.8,3.65,-22.41,-20.69,0,*7B
1508090464.66,29174,15.75,74982.0,3.67,-22.63,-20.89,0,*70
1508090465.89,29175,15.75,74982.3,3.65,-22.73,-20.89,0,*72
1508090467.13,29176,15.75,74988.3,3.67,-22.63,-20.89,0,*72
1508090468.39,29177,15.75,74986.8,3.67,-22.73,-20.89,0,*72
1508090469.6,29178,15.75,74984.3,3.65,-22.63,-20.89,0,*7E
1508090470.85,29179,15.75,74984.0,3.65,-22.73,-20.83,0,*74
1508090472.09,29180,15.75,74984.5,3.65,-22.73,-20.89,0,*78
1508090473.33,29181,15.75,74988.5,3.65,-22.73,-20.89,0,*79
1508090474.57,29182,15.75,74984.8,3.65,-22.77,-20.89,0,*7E
1508090475.83,29183,15.75,74984.8,3.65,-22.77,-21.03,0,*7C
1508090477.03,29184,15.75,74986.8,3.63,-22.83,-21.09,0,*7C
1508090478.31,29185,15.75,74988.3,3.67,-22.73,-20.99,0,*7E
1508090479.53,29186,15.75,74984.8,3.65,-22.63,-20.99,0,*7E
1508090480.75,29187,15.75,74986.5,3.65,-22.57,-20.89,0,*79
1508090481.99,29188,15.75,74984.8,3.65,-22.73,-20.89,0,*70
1508090483.25,29189,15.75,74984.8,3.65,-22.77,-20.99,0,*74
1508090484.49,29190,15.75,74984.3,3.65,-22.47,-20.73,0,*7B
1508090485.75,29191,15.75,74984.8,3.65,-22.77,-21.03,0,*7F
1508090486.99,29192,15.75,74986.0,3.65,-22.73,-20.89,0,*7B
1508090488.18,29193,15.75,74990.0,3.63,-22.83,-21.09,0,*7A
1508090489.41,29194,15.75,74984.5,3.63,-22.83,-21.03,0,*77
1508090490.64,29195,15.75,74984.0,3.65,-22.57,-20.83,0,*70
1508090491.88,29196,15.75,74982.8,3.65,-22.73,-20.89,0,*7F
1508090493.1,29197,15.75,74986.0,3.61,-22.63,-20.93,0,*70
1508090494.33,29198,15.75,74986.3,3.63,-22.47,-20.73,0,*75
1508090495.56,29199,15.75,74988.8,3.63,-22.53,-20.79,0,*7B
1508090496.77,29200,15.75,74984.3,3.63,-22.63,-20.89,0,*74
1508090497.98,29201,15.75,74988.5,3.65,-22.57,-20.73,0,*71
1508090499.19,29202,15.75,74984.8,3.65,-22.37,-20.59,0,*7C
1508090500.44,29203,15.75,74984.5,3.65,-22.77,-20.89,0,*74
1508090501.67,29204,15.75,74986.3,3.65,-22.47,-20.69,0,*7E
1508090502.87,29205,15.75,74988.0,3.63,-22.63,-20.73,0,*74
1508090504.08,29206,15.75,74984.8,3.63,-22.53,-20.63,0,*75
1508090505.31,29207,15.75,74984.5,3.63,-22.47,-20.63,0,*71
1508090506.54,29208,15.75,74986.0,3.63,-22.31,-20.59,0,*76
1508090507.79,29209,15.75,74988.3,3.63,-22.47,-20.79,0,*74
1508090508.99,29210,15.75,74986.3,3.63,-22.83,-21.09,0,*72
1508090510.23,29211,15.75,74982.5,3.65,-22.47,-20.73,0,*71
1508090511.44,29212,15.75,74986.0,3.63,-22.63,-20.79,0,*78
1508090512.64,29213,15.75,74984.8,3.63,-22.41,-20.73,0,*73
1508090513.88,29214,15.75,74984.8,3.63,-22.47,-20.63,0,*73
1508090515.09,29215,15.75,74984.5,3.63,-22.53,-20.89,0,*73
1508090516.32,29216,15.75,74986.8,3.63,-22.47,-20.73,0,*70
1508090517.55,29217,15.75,74984.3,3.63,-22.53,-20.79,0,*7E
1508090518.78,29218,15.75,74984.5,3.63,-22.83,-21.03,0,*70
1508090519.97,29219,15.75,74986.0,3.63,-22.83,-21.09,0,*7B
1508090521.2,29220,15.75,74984.0,3.63,-22.77,-20.93,0,*78
1508090522.43,29221,15.75,74984.0,3.61,-22.67,-20.89,0,*71
1508090523.64,29222,15.75,74986.0,3.63,-22.41,-20.63,0,*70
1508090524.86,29223,15.75,74986.8,3.65,-22.57,-20.89,0,*74
1508090526.11,29224,15.75,74986.0,3.65,-22.73,-20.99,0,*74
1508090527.33,29225,15.75,74984.5,3.63,-22.77,-21.09,0,*7F
1508090528.53,29226,15.75,74984.0,3.63,-22.83,-21.09,0,*77
1508090529.73,29227,15.75,74986.5,3.63,-22.67,-20.93,0,*7E
1508090530.96,29228,15.75,74984.3,3.63,-22.77,-20.93,0,*70
1508090532.19,29229,15.75,74986.5,3.63,-22.53,-20.79,0,*73
1508090533.43,29230,15.75,74984.3,3.61,-22.63,-20.79,0,*7A
1508090534.67,29231,15.75,74982.5,3.63,-22.47,-20.73,0,*75
1508090535.87,29232,15.75,74984.5,3.63,-22.63,-20.89,0,*75
1508090537.07,29233,15.75,74990.5,3.63,-22.67,-20.93,0,*7B
1508090538.3,29234,15.75,74982.8,3.63,-22.47,-20.73,0,*70
1508090539.53,29235,15.75,74980.0,3.63,-22.31,-20.73,0,*70
1508090540.76,29236,15.75,74986.0,3.63,-22.67,-21.03,0,*76
1508090541.96,29237,15.75,74984.3,3.63,-22.67,-20.93,0,*7F
1508090543.18,29238,15.75,74984.3,3.63,-22.67,-21.03,0,*78
1508090544.44,29239,15.75,74986.3,3.63,-22.77,-21.03,0,*78
1508090545.63,29240,15.75,74984.8,3.63,-22.83,-21.09,0,*77
1508090546.86,29241,15.75,74990.8,3.63,-22.77,-21.09,0,*7D
1508090548.08,29242,15.75,74986.3,3.63,-22.53,-20.79,0,*7E
1508090549.28,29243,15.75,74990.3,3.63,-22.63,-20.93,0,*78
1508090550.51,29244,15.75,74982.0,3.63,-22.47,-20.73,0,*77
1508090551.72,29245,15.75,74982.8,3.63,-22.67,-20.93,0,*7A
1508090552.97,29246,15.75,74984.5,3.65,-22.73,-20.99,0,*70
1508090554.19,29247,15.75,74986.8,3.61,-22.63,-20.93,0,*7E
1508090555.47,29248,15.75,74986.0,3.61,-22.47,-20.79,0,*73
1508090556.72,29249,15.75,74986.8,3.61,-22.31,-20.63,0,*78
1508090557.95,29250,15.75,74986.8,3.63,-22.31,-20.59,0,*7B
1508090559.17,29251,15.75,74986.8,3.63,-22.53,-20.89,0,*73
1508090560.41,29252,15.75,74986.5,3.61,-22.63,-21.03,0,*72
1508090561.65,29253,15.75,74984.5,3.63,-22.47,-20.73,0,*71
1508090562.84,29254,15.75,74986.8,3.63,-22.83,-21.09,0,*72
1508090564.04,29255,15.75,74986.5,3.63,-22.63,-20.93,0,*7F
1508090565.26,29256,15.75,74986.0,3.63,-22.67,-21.03,0,*70
1508090566.48,29257,15.75,74984.3,3.63,-22.53,-20.89,0,*75
1508090567.7,29258,15.75,74986.3,3.63,-22.77,-21.09,0,*75
1508090568.91,29259,15.75,74984.8,3.63,-22.63,-20.89,0,*78
1508090570.1,29260,15.75,74984.5,3.63,-22.83,-21.09,0,*75
1508090571.36,29261,15.75,74984.3,3.61,-22.93,-21.23,0,*7F
1508090572.6,29262,15.75,74984.8,3.61,-22.53,-20.93,0,*7A
1508090573.82,29263,15.75,74984.8,3.61,-22.41,-20.73,0,*76
1508090575.05,29264,15.75,74986.0,3.63,-22.31,-20.63,0,*75
1508090576.28,29265,15.75,74984.3,3.65,-22.63,-20.83,0,*7B
1508090577.5,29266,15.75,74984.8,3.63,-22.53,-20.79,0,*78
1508090578.74,29267,15.75,74988.0,3.61,-22.53,-20.73,0,*71
1508090579.95,29268,15.75,74984.8,3.63,-22.53,-20.89,0,*79
1508090581.17,29269,15.75,74988.8,3.61,-22.41,-20.73,0,*7C
1508090582.41,29270,15.75,74988.5,3.61,-22.53,-20.89,0,*72
1508090583.64,29271,15.75,74986.3,3.61,-22.27,-20.59,0,*7D
1508090584.85,29272,15.75,74984.8,3.63,-22.53,-20.73,0,*77
1508090586.07,29273,15.75,74986.8,3.61,-22.63,-20.93,0,*79
1508090587.29,29274,15.75,74988.3,3.63,-22.53,-20.89,0,*74
1508090588.52,29275,15.75,74984.0,3.61,-22.53,-20.73,0,*72
1508090589.73,29276,15.75,74986.8,3.65,-22.37,-20.73,0,*77
1508090590.93,29277,15.75,74986.8,3.63,-22.27,-20.59,0,*79
1508090592.13,29278,15.75,74986.0,3.63,-22.03,-20.29,0,*77
1508090593.36,29279,15.75,74982.5,3.61,-22.41,-20.63,0,*7C
1508090594.6,29280,15.75,74990.0,3.61,-22.41,-20.79,0,*71
1508090595.8,29281,15.75,74988.3,3.63,-22.67,-20.93,0,*72
1508090597.01,29282,15.75,74986.8,3.63,-22.67,-20.93,0,*71
1508090598.21,29283,15.75,74988.5,3.63,-22.67,-20.89,0,*7B
1508090599.44,29284,15.75,74984.8,3.61,-22.63,-20.93,0,*71
1508090600.66,29285,15.75,74980.3,3.63,-22.53,-20.79,0,*75
1508090601.9,29286,15.75,74984.0,3.63,-22.77,-20.93,0,*74
1508090603.13,29287,15.75,74986.5,3.61,-22.53,-20.73,0,*7F
1508090604.35,29288,15.75,74986.0,3.63,-22.53,-20.79,0,*78
1508090605.59,29289,15.75,74980.3,3.63,-22.31,-20.63,0,*76
1508090606.82,29290,15.75,74988.0,3.63,-22.47,-20.63,0,*7F
1508090608.05,29291,15.75,74988.8,3.63,-22.31,-20.43,0,*7D
1508090609.26,29292,15.75,74986.8,3.63,-22.53,-20.89,0,*7C
1508090610.49,29293,15.75,74986.3,3.63,-22.53,-20.79,0,*72
1508090611.7,29294,15.75,74986.3,3.65,-22.41,-20.59,0,*72
1508090612.91,29295,15.75,74988.5,3.63,-22.53,-20.89,0,*7B
1508090614.14,29296,15.75,74988.0,3.61,-22.63,-20.89,0,*79
1508090615.39,29297,15.75,74982.5,3.63,-22.47,-20.79,0,*73
1508090616.59,29298,15.75,74988.0,3.63,-22.63,-20.93,0,*7E
1508090617.79,29299,15.75,74986.0,3.63,-22.63,-20.93,0,*7F
1508090619.0,29300,15.75,74986.3,3.65,-22.41,-20.69,0,*7D
1508090620.21,29301,15.75,74984.5,3.65,-22.63,-20.89,0,*72
1508090621.43,29302,15.75,74986.8,3.63,-22.83,-21.03,0,*7A
1508090622.63,29303,15.75,74984.8,3.63,-22.83,-21.09,0,*71
1508090623.83,29304,15.75,74986.3,3.63,-22.63,-20.89,0,*71
1508090625.03,29305,15.75,74984.8,3.63,-22.63,-20.93,0,*7B
1508090626.26,29306,15.75,74988.8,3.63,-22.77,-21.09,0,*7F
1508090627.48,29307,15.75,74984.0,3.63,-22.67,-21.03,0,*75
1508090628.72,29308,15.75,74990.0,3.67,-22.57,-20.73,0,*7B
1508090629.95,29309,15.75,74984.5,3.63,-22.47,-20.63,0,*7E
1508090631.15,29310,15.75,74986.3,3.63,-22.27,-20.63,0,*70
1508090632.39,29311,15.75,74984.5,3.61,-22.53,-20.89,0,*74
1508090633.62,29312,15.75,74984.5,3.63,-22.67,-21.03,0,*71
1508090634.82,29313,15.75,74984.0,3.63,-22.63,-20.93,0,*7C
1508090636.04,29314,15.75,74986.0,3.63,-22.67,-21.03,0,*77
1508090637.26,29315,15.75,74986.0,3.63,-22.67,-21.03,0,*76
1508090638.49,29316,15.75,74986.3,3.63,-22.67,-21.03,0,*75
1508090639.71,29317,15.75,74984.0,3.61,-22.63,-20.93,0,*7A
1508090640.96,29318,15.75,74982.5,3.63,-22.47,-20.79,0,*75
1508090642.19,29319,15.75,74980.5,3.61,-22.27,-20.63,0,*7B
1508090643.39,29320,15.75,74980.8,3.63,-22.41,-20.63,0,*73
1508090644.63,29321,15.75,74984.8,3.61,-22.53,-20.89,0,*77
1508090645.86,29322,15.75,74986.5,3.63,-22.53,-20.79,0,*79
1508090647.09,29323,15.75,74984.8,3.63,-22.47,-20.73,0,*77
1508090648.31,29324,15.75,74984.3,3.63,-22.53,-20.89,0,*70
1508090649.54,29325,15.75,74986.5,3.63,-22.47,-20.89,0,*74
1508090650.75,29326,15.75,74982.3,3.63,-22.41,-20.63,0,*75
1508090651.95,29327,15.75,74986.5,3.63,-22.41,-20.63,0,*74
1508090653.2,29328,15.75,74986.8,3.63,-22.47,-20.79,0,*76
1508090654.4,29329,15.75,74986.8,3.63,-22.63,-20.89,0,*7E
1508090655.62,29330,15.75,74984.8,3.65,-22.37,-20.59,0,*7C
1508090656.83,29331,15.75,74984.3,3.65,-22.63,-20.89,0,*71
1508090658.06,29332,15.75,74984.5,3.63,-22.31,-20.63,0,*77
1508090659.29,29333,15.75,74984.8,3.63,-22.53,-20.79,0,*79
1508090660.52,29334,15.75,74986.5,3.63,-22.47,-20.73,0,*71
1508090661.75,29335,15.75,74984.5,3.63,-22.47,-20.63,0,*71
1508090662.97,29336,15.75,74982.3,3.63,-22.67,-21.03,0,*77
1508090664.18,29337,15.75,74984.8,3.63,-22.83,-21.17,0,*79
1508090665.41,29338,15.75,74984.3,3.65,-22.77,-21.13,0,*7F
1508090666.63,29339,15.75,74984.0,3.65,-22.57,-20.89,0,*7E
1508090667.86,29340,15.75,74980.3,3.63,-22.27,-20.53,0,*76
1508090669.06,29341,15.75,74986.8,3.63,-22.63,-20.89,0,*70
1508090670.29,29342,15.75,74984.5,3.63,-22.47,-20.73,0,*70
1508090671.52,29343,15.75,74980.8,3.63,-22.63,-21.03,0,*71
1508090672.74,29344,15.75,74986.5,3.63,-22.77,-21.09,0,*79
1508090673.97,29345,15.75,74984.0,3.61,-22.41,-20.73,0,*73
1508090675.2,29346,15.75,74984.3,3.65,-22.41,-20.83,0,*7B
1508090676.44,29347,15.75,74986.0,3.65,-22.47,-20.89,0,*76
1508090677.7,29348,15.75,74984.5,3.67,-22.47,-20.73,0,*7E
1508090678.93,29349,15.75,74988.5,3.65,-22.63,-20.99,0,*7F
1508090680.19,29350,15.75,74984.0,3.65,-22.47,-20.83,0,*7A
1508090681.39,29351,15.75,74986.0,3.65,-22.41,-20.69,0,*79
1508090682.59,29352,15.75,74986.3,3.63,-22.27,-20.63,0,*76
1508090683.8,29353,15.75,74984.0,3.63,-22.11,-20.39,0,*7D
1508090685.03,29354,15.75,74986.0,3.65,-22.47,-20.69,0,*7A
1508090686.27,29355,15.75,74982.0,3.65,-22.27,-20.53,0,*74
1508090687.48,29356,15.75,74986.5,3.65,-22.41,-20.59,0,*7D
1508090688.69,29357,15.75,74986.0,3.65,-22.27,-20.59,0,*7C
1508090689.89,29358,15.75,74986.8,3.65,-22.27,-20.69,0,*70
1508090691.11,29359,15.75,74984.5,3.65,-22.37,-20.59,0,*73
1508090692.31,29360,15.75,74986.3,3.65,-22.27,-19.75,0,*7C
1508090693.56,29361,15.75,74986.3,3.67,-22.11,-19.65,0,*7B
1508090694.78,29362,15.75,74984.8,3.65,-22.07,-19.61,0,*79
1508090696.02,29363,15.75,74982.5,3.67,-22.37,-19.91,0,*76
1508090697.25,29364,15.75,74980.8,3.65,-22.47,-19.91,0,*74
1508090698.53,29365,15.75,74984.5,3.67,-22.21,-19.65,0,*7C
1508090699.76,29366,15.75,74980.3,3.65,-22.11,-19.61,0,*7A
1508090700.99,29367,15.75,74986.5,3.67,-22.27,-19.75,0,*79
1508090702.26,29368,15.75,74980.5,3.71,-22.21,-19.61,0,*72
1508090703.49,29369,15.75,74984.5,3.67,-22.37,-19.91,0,*7C
1508090704.75,29370,15.75,74984.8,3.67,-22.47,-19.95,0,*77
1508090706.0,29371,15.75,74982.3,3.67,-22.27,-19.81,0,*75
1508090707.24,29372,15.75,74984.3,3.65,-22.47,-19.95,0,*77
1508090708.45,29373,15.75,74986.0,3.65,-22.41,-19.95,0,*70
1508090709.7,29374,15.75,74982.5,3.67,-22.11,-19.61,0,*7B
1508090710.95,29375,15.75,74982.8,3.65,-22.21,-19.81,0,*75
1508090712.18,29376,15.75,74980.5,3.71,-22.41,-19.91,0,*74
1508090713.41,29377,15.75,74986.5,3.67,-22.41,-19.95,0,*76
1508090714.66,29378,15.75,74982.5,3.67,-22.47,-20.05,0,*7C
1508090715.87,29379,15.75,74982.5,3.65,-22.37,-19.95,0,*7B
1508090717.08,29380,15.75,74980.8,3.73,-22.27,-19.95,0,*7B
1508090718.31,29381,15.75,74984.8,3.65,-22.47,-19.95,0,*7B
1508090719.55,29382,15.75,74984.0,3.67,-22.37,-19.95,0,*7D
1508090720.8,29383,15.75,74986.3,3.67,-22.47,-20.05,0,*78
1508090722.06,29384,15.75,74986.0,3.67,-22.21,-19.91,0,*78
1508090723.31,29385,15.75,74980.8,3.67,-22.27,-19.81,0,*7E
1508090724.54,29386,15.75,74982.5,3.65,-22.27,-19.81,0,*7F
1508090725.76,29387,15.75,74982.8,3.67,-22.27,-19.91,0,*7D
1508090726.99,29388,15.75,74980.5,3.67,-22.11,-19.75,0,*7D
1508090728.22,29389,15.75,74980.5,3.71,-22.37,-19.91,0,*75
1508090729.45,29390,15.75,74980.5,3.67,-22.41,-19.95,0,*7F
1508090730.68,29391,15.75,74980.0,3.67,-22.37,-19.95,0,*7F
1508090731.91,29392,15.75,74980.0,3.67,-22.37,-19.91,0,*78
1508090733.16,29393,15.75,74976.8,3.71,-22.37,-19.85,0,*7B
1508090734.43,29394,15.75,74980.8,3.71,-22.21,-19.85,0,*7B
1508090735.68,29395,15.75,74982.0,3.71,-22.21,-19.75,0,*75
1508090736.94,29396,15.75,74980.8,3.67,-22.47,-20.05,0,*7C
1508090738.15,29397,15.75,74980.0,3.65,-22.37,-19.91,0,*7F
1508090739.4,29398,15.75,74984.0,3.71,-22.17,-19.71,0,*79
1508090740.68,29399,15.75,74980.0,3.67,-22.21,-19.81,0,*75
1508090741.91,29400,15.75,74982.8,3.73,-22.17,-19.71,0,*7D
1508090743.18,29401,15.75,74980.5,3.71,-22.31,-19.85,0,*71
1508090744.4,29402,15.75,74982.0,3.71,-22.07,-19.71,0,*7C
1508090745.63,29403,15.75,74984.0,3.67,-22.41,-19.91,0,*76
1508090746.9,29404,15.75,74984.0,3.71,-22.31,-19.85,0,*74
1508090748.17,29405,15.75,74982.8,3.71,-22.31,-19.85,0,*75
1508090749.39,29406,15.75,74982.3,3.71,-22.41,-19.99,0,*7C
1508090750.62,29407,15.75,74980.8,3.67,-22.41,-20.05,0,*75
1508090751.87,29408,15.75,74980.3,3.71,-22.53,-20.15,0,*7F
1508090753.1,29409,15.75,74982.8,3.71,-22.53,-20.05,0,*7F
1508090754.36,29410,15.75,74980.0,3.71,-22.53,-20.19,0,*7A
1508090755.62,29411,15.75,74980.0,3.67,-22.47,-20.05,0,*74
1508090756.88,29412,15.75,74982.5,3.67,-22.47,-19.95,0,*74
1508090758.11,29413,15.75,74984.3,3.65,-22.47,-20.05,0,*74
1508090759.35,29414,15.75,74980.8,3.67,-22.57,-20.05,0,*70
1508090760.57,29415,15.75,74986.8,3.71,-22.41,-19.91,0,*76
1508090761.79,29416,15.75,74986.8,3.71,-22.07,-19.75,0,*7D
1508090763.06,29417,15.75,74986.5,3.71,-22.31,-19.85,0,*76
1508090764.33,29418,15.75,74986.8,3.71,-22.31,-19.85,0,*79
1508090765.61,29419,15.75,74986.0,3.71,-22.21,-19.85,0,*79
1508090766.85,29420,15.75,74980.8,3.71,-22.07,-19.61,0,*7D
1508090768.13,29421,15.75,74980.3,3.71,-22.21,-19.85,0,*72
1508090769.38,29422,15.75,74984.5,3.71,-21.93,-19.57,0,*74
1508090770.66,29423,15.75,74984.8,3.71,-22.31,-19.85,0,*71
1508090771.88,29424,15.75,74986.3,3.71,-22.41,-19.99,0,*7C
1508090773.13,29425,15.75,74984.8,3.71,-22.17,-19.75,0,*7C
1508090774.36,29426,15.75,74984.8,3.71,-22.37,-20.05,0,*70
1508090775.64,29427,15.75,74986.5,3.71,-22.21,-19.85,0,*74
1508090776.86,29428,15.75,74984.0,3.71,-22.41,-20.05,0,*7F
1508090778.12,29429,15.75,74982.3,3.71,-22.57,-20.19,0,*74
1508090779.35,29430,15.75,74984.3,3.71,-22.53,-20.05,0,*75
1508090780.58,29431,15.75,74984.3,3.73,-22.47,-20.09,0,*7F
1508090781.83,29432,15.75,74990.3,3.71,-22.57,-20.19,0,*7E
1508090783.06,29433,15.75,74984.8,3.71,-22.53,-19.99,0,*79
1508090784.32,29434,15.75,74990.5,3.71,-22.57,-20.19,0,*78
1508090785.56,29435,15.75,74990.5,3.71,-22.41,-20.15,0,*72
1508090786.82,29436,15.75,74990.0,3.71,-22.53,-20.19,0,*7E
1508090788.07,29437,15.75,74988.5,3.71,-22.31,-19.91,0,*71
1508090789.29,29438,15.75,74986.0,3.71,-22.41,-20.05,0,*7E
1508090790.52,29439,15.75,74986.8,3.71,-22.37,-20.05,0,*7E
1508090791.76,29440,15.75,74986.3,3.71,-22.41,-20.15,0,*70
1508090793.01,29441,15.75,74986.8,3.71,-22.73,-20.29,0,*7F
1508090794.21,29442,15.75,74988.0,3.73,-22.67,-20.29,0,*7B
1508090795.44,29443,15.75,74986.5,3.71,-22.41,-20.05,0,*72
1508090796.71,29444,15.75,74988.5,3.71,-22.21,-19.85,0,*71
1508090797.96,29445,15.75,74988.3,3.71,-22.57,-20.15,0,*72
1508090799.22,29446,15.75,74984.8,3.67,-22.47,-20.05,0,*76
1508090800.45,29447,15.75,74984.5,3.67,-22.57,-20.09,0,*7A
1508090801.71,29448,15.75,74988.0,3.71,-22.53,-20.19,0,*77
1508090802.97,29449,15.75,74984.8,3.67,-22.47,-20.05,0,*79
1508090804.2,29450,15.75,74984.8,3.67,-22.37,-19.95,0,*75
1508090805.43,29451,15.75,74982.8,3.67,-22.11,-19.75,0,*7E
1508090806.68,29452,15.75,74986.3,3.67,-22.21,-19.75,0,*7E
1508090807.91,29453,15.75,74986.0,3.67,-22.27,-19.91,0,*73
1508090809.13,29454,15.75,74986.3,3.67,-22.07,-19.75,0,*7C
1508090810.38,29455,15.75,74984.0,3.71,-22.21,-19.91,0,*74
1508090811.58,29456,15.75,74984.3,3.73,-22.11,-19.71,0,*78
1508090812.83,29457,15.75,74984.5,3.67,-22.21,-19.91,0,*71
1508090814.09,29458,15.75,74978.3,3.73,-22.17,-19.81,0,*7F
1508090815.34,29459,15.75,74986.0,3.71,-22.21,-19.91,0,*78
1508090816.56,29460,15.75,74982.3,3.73,-22.27,-19.85,0,*73
1508090817.79,29461,15.75,74982.5,3.71,-22.41,-20.05,0,*72
1508090819.01,29462,15.75,74982.3,3.71,-22.37,-19.99,0,*7F
1508090820.26,29463,15.75,74980.3,3.71,-22.53,-20.15,0,*72
1508090821.52,29464,15.75,74980.5,3.71,-22.57,-20.19,0,*7D
1508090822.74,29465,15.75,74982.3,3.71,-22.41,-19.99,0,*79
1508090823.99,29466,15.75,74976.3,3.71,-22.31,-19.91,0,*75
1508090825.25,29467,15.75,74984.5,3.71,-22.57,-20.19,0,*7E
1508090826.52,29468,15.75,74980.5,3.75,-22.17,-19.81,0,*7A
1508090827.75,29469,15.75,74984.3,3.71,-22.37,-19.91,0,*7C
1508090829.02,29470,15.75,74982.0,3.71,-22.21,-19.85,0,*76
1508090830.27,29471,15.75,74984.8,3.71,-22.31,-19.99,0,*7B
1508090831.47,29472,15.75,74980.0,3.73,-22.03,-19.75,0,*79
1508090832.75,29473,15.75,74986.0,3.71,-22.21,-19.85,0,*75
1508090834.02,29474,15.75,74980.0,3.71,-22.21,-19.85,0,*72
1508090835.27,29475,15.75,74980.8,3.71,-22.57,-20.15,0,*71
1508090836.52,29476,15.75,74986.0,3.71,-22.53,-20.15,0,*76
1508090837.79,29477,15.75,74984.5,3.71,-22.21,-19.85,0,*71
1508090839.0,29478,15.75,74986.3,3.73,-22.27,-19.95,0,*7B
1508090840.22,29479,15.75,74980.0,3.73,-22.11,-19.81,0,*7A
1508090841.45,29480,15.75,74982.5,3.73,-22.31,-19.95,0,*7B
1508090842.68,29481,15.75,74980.5,3.73,-22.31,-19.99,0,*76
1508090843.9,29482,15.75,74982.3,3.73,-22.11,-19.81,0,*7E
1508090845.14,29483,15.75,74984.3,3.73,-22.17,-19.95,0,*7C
1508090846.41,29484,15.75,74980.0,3.75,-22.17,-19.85,0,*7C
1508090847.62,29485,15.75,74980.5,3.73,-22.37,-20.09,0,*77
1508090848.87,29486,15.75,74980.8,3.73,-22.47,-20.15,0,*7E
1508090850.09,29487,15.75,74982.8,3.73,-22.31,-19.99,0,*70
1508090851.3,29488,15.75,74980.3,3.73,-22.27,-19.95,0,*74
1508090852.52,29489,15.75,74980.3,3.73,-22.37,-20.15,0,*76
1508090853.73,29490,15.75,74978.0,3.73,-22.37,-20.25,0,*7D
1508090854.93,29491,15.75,74984.3,3.73,-22.67,-20.29,0,*75
1508090856.15,29492,15.75,74980.8,3.71,-22.41,-19.99,0,*71
1508090857.38,29493,15.75,74984.3,3.73,-22.27,-19.85,0,*7F
1508090858.6,29494,15.75,74984.5,3.71,-22.41,-20.05,0,*78
1508090859.84,29495,15.75,74982.3,3.73,-22.17,-19.95,0,*7B
1508090861.06,29496,15.75,74982.0,3.73,-22.31,-19.99,0,*70
1508090862.28,29497,15.69,74980.3,3.73,-22.41,-20.15,0,*78
1508090863.56,29498,15.75,74982.5,3.75,-22.17,-19.85,0,*71
1508090864.78,29499,15.75,74980.5,3.73,-22.11,-19.81,0,*74
1508090866.0,29500,15.75,74980.5,3.73,-21.97,-19.71,0,*77
1508090867.25,29501,15.75,74982.8,3.71,-22.41,-20.19,0,*78
1508090868.48,29502,15.75,74982.5,3.73,-22.31,-19.99,0,*7C
1508090869.68,29503,15.75,74982.0,3.73,-22.63,-20.25,0,*77
1508090870.89,29504,15.69,74982.3,3.73,-22.53,-20.29,0,*7F
1508090872.12,29505,15.75,74980.5,3.73,-22.31,-19.99,0,*7B
1508090873.34,29506,15.75,74984.3,3.73,-22.31,-19.99,0,*78
1508090874.54,29507,15.75,74988.0,3.73,-22.37,-19.99,0,*7F
1508090875.8,29508,15.69,74980.5,3.73,-22.17,-19.85,0,*7F
1508090877.03,29509,15.75,74982.3,3.73,-22.17,-19.95,0,*7F
1508090878.26,29510,15.75,74984.5,3.73,-22.31,-19.99,0,*7F
1508090879.46,29511,15.75,74982.0,3.73,-22.27,-19.99,0,*79
1508090880.68,29512,15.75,74982.0,3.73,-21.97,-19.71,0,*74
1508090881.91,29513,15.75,74980.8,3.73,-22.31,-20.09,0,*7F
1508090883.16,29514,15.75,74982.8,3.75,-22.37,-20.15,0,*75
1508090884.38,29515,15.75,74982.5,3.75,-22.27,-19.99,0,*7B
1508090885.63,29516,15.75,74980.8,3.75,-22.53,-20.15,0,*75
1508090886.85,29517,15.75,74982.3,3.75,-22.27,-20.09,0,*7A
1508090888.1,29518,15.75,74982.8,3.75,-22.53,-20.15,0,*7B
1508090889.32,29519,15.75,74986.3,3.75,-22.37,-20.09,0,*75
1508090890.57,29520,15.75,74982.5,3.73,-22.31,-20.15,0,*72
1508090891.78,29521,15.75,74980.5,3.73,-22.53,-20.43,0,*74
1508090892.99,29522,15.75,74980.8,3.73,-22.67,-20.43,0,*70
1508090894.19,29523,15.75,74984.8,3.73,-22.63,-20.43,0,*75
1508090895.39,29524,15.75,74984.0,3.73,-22.63,-20.43,0,*72
1508090896.62,29525,15.75,74982.5,3.71,-22.67,-20.29,0,*79
1508090897.82,29526,15.75,74982.5,3.73,-22.27,-19.95,0,*71
1508090899.03,29527,15.75,74980.8,3.73,-22.37,-20.09,0,*7E
1508090900.28,29528,15.75,74986.0,3.71,-22.41,-20.19,0,*73